Regional Weather Roundup
Issued by NWS

Home | Current Version | Previous Version | Graphics & Text | Print | Product List | Glossary On
Versions: 1 2 3 4 5 6 7 8 9 10 11 12 13 14 15 16 17 18 19 20 21 22 23 24 25 26 27 28 29 30 31 32 33 34 35 36 37 38 39 40 41 42 43 44 45 46 47 48 49 50
000
ASUS43 KBIS 021110
RWRND

NORTH DAKOTA REGIONAL WEATHER ROUNDUP
NATIONAL WEATHER SERVICE BISMARCK ND
600 AM CDT SUN AUG 02 2015

NOTE: "FAIR" INDICATES FEW OR NO CLOUDS BELOW 12,000 FEET WITH NO
SIGNIFICANT WEATHER AND/OR OBSTRUCTIONS TO VISIBILITY.


NDZ001>003-009>011-017-021200-
NORTHWEST NORTH DAKOTA

CITY           SKY/WX    TMP DP  RH WIND       PRES   REMARKS
WILLISTON      CLEAR     56  50  80 CALM      29.94R
MINOT          CLEAR     59  54  83 W9        29.86R
MINOT AFB      CLEAR     59  57  92 NW8       29.85R
$$

NDZ018>021-031>035-040>046-021200-
SOUTHWEST NORTH DAKOTA

CITY           SKY/WX    TMP DP  RH WIND       PRES   REMARKS
BISMARCK       CLEAR     62  55  77 NW7       29.84R
DICKINSON      CLEAR     53  50  89 NW6       29.91R
GARRISON         N/A     58  55  90 N9        29.86R
HETTINGER ARPT CLEAR     51  48  89 NW7       29.93R
$$

NDZ004>008-012>016-024-026-027-054-021200-
NORTHEAST NORTH DAKOTA

CITY           SKY/WX    TMP DP  RH WIND       PRES   REMARKS
GRAND FORKS    MOCLDY    62  60  93 NW8       29.69R
GRND FRKS AFB  MOCLDY    62  59  90 NW12      29.70R
DEVILS LAKE    CLEAR     61  54  77 NW8       29.76R
$$

NDZ022-023-025-028>030-036>039-047>053-021200-
SOUTHEAST NORTH DAKOTA

CITY           SKY/WX    TMP DP  RH WIND       PRES   REMARKS
FARGO          CLEAR     66  63  90 N10       29.61S
JAMESTOWN      PTCLDY    61  58  90 N7        29.73R
$$



USA.gov is the U.S. government's official web portal to all federal, state and local government web resources and services.